Location: Roland
(31.1349°N, 85.4372°W)
Time: 03:37:07
(UTC+00:00)

Courier 1B - Pass Details

Date: 26 April 2021
Orbit: 962 x 1209 km, 28.3° (Epoch: 07 May)

Event Time Altitude Azimuth Distance (km) Brightness Sun altitude
Rises 13:28:05 0° 216° (SW) 4,026 10.4 30.1°
Reaches altitude 10° 13:31:37 10° 202° (SSW) 3,029 10.0 30.9°
Maximum altitude 13:37:12 23° 154° (SSE) 2,157 9.9 32.1°
Drops below altitude 10° 13:42:33 10° 104° (ESE) 2,895 11.4 33.2°
Sets 13:45:49 0° 91° (E) 3,808 11.7 33.9°
